Regional Weather Roundup
Issued by NWS Nashville, TN

Current Version | Previous Version | Text Only | Print | Product List | Glossary Off
Versions: 1 2 3 4 5 6 7 8 9 10 11 12 13 14 15 16 17 18 19 20 21 22 23 24 25 26 27

000
ASUS44 KOHX 202310
RWROHX
MIDDLE TENNESSEE HOURLY WEATHER ROUNDUP
NATIONAL WEATHER SERVICE NASHVILLE TN
600 PM CDT SUN MAY 20 2018

NOTE: "FAIR" INDICATES FEW OR NO CLOUDS BELOW 12,000 FEET WITH
NO SIGNIFICANT WEATHER AND/OR OBSTRUCTIONS TO VISIBILITY.

* THESE REPORTS ARE NOT UNDER NWS QUALITY CONTROL AND MAY NOT
  REPORT WEATHER SUCH AS PRECIPITATION AND FOG.


TNZ005>011-023>034-057-059-062>066-078-080-210000
...NORTHERN MIDDLE TENNESSEE...

CITY           SKY/WX    TMP DP  RH WIND       PRES   REMARKS
CLARKSVILLE      N/A     78  65  63 SE8       30.05S THUNDER
CROSSVILLE       N/A     76  66  71 S3        30.13F
GALLATIN       SUNNY     86  68  54 CALM      30.06S
DICKSON        CLOUDY    72  66  83 W8        30.08R HAZE
LIVINGSTON     SUNNY     81  66  61 CALM      30.08S
NASHVILLE      TSTM      74  68  81 SW10      30.08R
PORTLAND       CLOUDY    84  70  61 N10       30.05S
SMYRNA           N/A     80  69  69 S6        30.08R THUNDER
SPARTA         SUNNY     79  72  78 S5        30.07S
SPRINGFIELD    CLOUDY    66  64  94 E6        30.09S
WEST NASHVILLE PTSUNNY   73  63  68 S16       30.08R
$$
TNZ056-058-060-061-075>077-079-093>097-210000
...SOUTHERN MIDDLE TENNESSEE...

CITY           SKY/WX    TMP DP  RH WIND       PRES   REMARKS
COLUMBIA       SUNNY     81  68  65 SE6G12    30.05R
FAYETTEVILLE   SUNNY     73  68  83 S6        30.08R
LEWISBURG      SUNNY     79  68  69 VRB3      30.05S
MCMINNVILLE    SUNNY     77  68  73 CALM      30.07F
MURFREESBORO   SUNNY     81  68  65 S6G13     30.06R
PULASKI        SUNNY     81  66  61 SE9G18    30.07R
SHELBYVILLE    SUNNY     77  66  69 CALM      30.07S
TULLAHOMA      SUNNY     70  66  88 S3        30.07S
WINCHESTER     SUNNY     73  64  73 CALM      30.09F
$$


...KEY TO REMARKS...
VSB - VISIBILITY IN MILES
WCI - WIND CHILL INDEX
HX  - HEAT INDEX





USA.gov is the U.S. government's official web portal to all federal, state and local government web resources and services.